Regional Weather Roundup
Issued by NWS Newport/Morehead, NC

Home | Current Version | Previous Version | Text Only | Print | Product List | Glossary On
Versions: 1 2 3 4 5 6 7 8 9 10 11 12 13 14 15 16 17 18 19 20 21 22 23 24 25 26 27 28 29 30 31 32 33 34 35 36 37 38 39 40 41 42 43 44 45 46 47 48 49 50
000
ASUS42 KMHX 192225
RWRMHX
WEATHER ROUNDUP FOR EASTERN NORTH CAROLINA
NATIONAL WEATHER SERVICE NEWPORT/MOREHEAD CITY NC
600 PM EDT THU OCT 19 2017

NOTE: "FAIR" INDICATES FEW OR NO CLOUDS BELOW 12,000 FEET
WITH NO SIGNIFICANT WEATHER AND/OR OBSTRUCTIONS TO VISIBILITY

NCZ015>017-031-032-045>047-102-103-192300-
NORTH COAST

CITY           SKY/WX    TMP DP  RH WIND       PRES   REMARKS
EDENTON        CLEAR     73  58  61 CALM      30.19S
ELIZABETH CITY CLEAR     71  60  68 E7        30.18S
KITTY HAWK     CLEAR     68  58  72 CALM      30.17F
MANTEO         CLEAR    N/A N/A N/A E3        30.19S

$$

NCZ045>047-081-094-103-104-192300-
CENTRAL COAST

CITY           SKY/WX    TMP DP  RH WIND       PRES   REMARKS
FRISCO         CLEAR     72  62  71 VRB3      30.18S

$$

NCZ095-097-098-100-101-192300-
SOUTHERN COAST

CITY           SKY/WX    TMP DP  RH WIND       PRES   REMARKS
BEAUFORT       CLEAR     73  59  61 E3        30.18S
CEDAR ISLAND   NOT AVBL
JACKSONVILLE   CLEAR     76  57  51 N5        30.17S
PINEY ISLAND     N/A    N/A N/A N/A E5        30.18S
WILMINGTON     CLEAR     75  59  57 E3        30.18S


$$

NCZ011>013-027>030-043-044-078>080-089-090>093-098-192300-
COASTAL PLAIN

CITY           SKY/WX    TMP DP  RH WIND       PRES   REMARKS
AHOSKIE        CLEAR     66  56  70 CALM      30.19S
CLINTON        CLEAR     74  57  56 CALM      30.19S
ELIZABETHTOWN  NOT AVBL
GOLDSBORO      CLEAR     76  53  45 W6        30.18S
GREENVILLE     CLEAR     70  57  64 CALM      30.20S
HAVELOCK       CLEAR     73  61  65 E5        30.18F
KENANSVILLE    CLEAR     73  54  49 NW3       30.19S
KINSTON        CLEAR     72  55  56 CALM      30.19S
NEW BERN       CLEAR     72  60  66 SE3       30.19S
RICHLANDS      CLEAR     73  61  65 CALM      30.18F
ROCKY MOUNT    CLEAR     72  54  53 W5        30.19F
WASHINGTON     CLEAR     70  55  58 CALM      30.19S
WHITEVILLE     CLEAR     72  59  64 CALM      30.18S

$$

AMZ130-135-150-152-154-156-158-170-250-252-270-ANZ085-086-088-633-658-670-192300-
MARINE OBSERVATIONS

STATION/POSITION TIME  TEMP    WIND        PRES    WAVE   SWELL
                       AIR SEA DIR/SP/G            HT/PER HT/PER
                 (UTC) (F)     (DEG/KT/KT) (MB)    (FT/S) (FT/S)
CHESAPEAKE LIGHT NOT AVBL
64 E VA BEACH    2150   68 70   60/  2/  4 1022.6    3/ 8   3/ 8
DUCK             2200   71 69  110/  6/  7 1021.6
2 E DUCK         2200      70                N/A     3/ 9
OREGON INLET     2200   69 67   70/  5/  6 1022.0
13E OREGON INLT  2148      71                N/A     3/ 9   3/ 9
HATTERAS CG      2200   71 69   50/  5/  8 1021.9
DIAMOND BUOY     2150   75 81  360/ 10/ 12 1021.6    5/ 9   5/ 9
CAPE LOOKOUT     2200   72      40/  9/  9 1021.6
BEAUFORT LAB     2200   73 70  100/  4/  6 1022.1
30 SE NEW RVR IN 2208   74      50/  8/ 12 1021.5
30 SE NEW RVR IN NOT AVBL
27 SE WRIGHTSVLE 2208   75 77   60/ 10/ 16 1021.7
5 SE WRIGHTSVLE  2208   74 74   90/  6/ 12 1021.5
225 S CAPE HAT   2150   77 80   40/ 17/ 19 1018.1    6/ 8
41 SE CHARLESTON 2210   76 80   30/ 14/ 17 1020.7

$$




USA.gov is the U.S. government's official web portal to all federal, state and local government web resources and services.